Location: ????
(32.1228°N, 34.8377°E)
Time: 03:09:36
(UTC+00:00)

Landsat 5 - Pass Details

Date: 21 September 2020
Orbit: 528 x 655 km, 98.2° (Epoch: 23 October)

Event Time Altitude Azimuth Distance (km) Brightness Sun altitude
Rises 01:34:19 0° 166° (SSE) 2,952 7.0 -24.6°
Reaches altitude 10° 01:36:31 10° 166° (SSE) 2,051 6.2 -24.1°
Maximum altitude 01:41:00 89° 93° (E) 659 3.6 -23.2°
Drops below altitude 10° 01:45:32 10° 348° (NNW) 2,060 6.3 -22.3°
Sets 01:47:45 0° 348° (NNW) 2,966 7.1 -21.9°
